Regional Weather Roundup
Issued by NWS Boston, MA

Current Version | Previous Version | Text Only | Print | Product List | Glossary Off
Versions: 1 2 3 4 5 6 7 8 9 10 11 12 13 14 15 16 17 18 19 20 21 22 23 24 25 26 27 28 29 30 31 32 33 34 35 36 37 38 39 40 41 42 43 44 45 46 47 48 49 50
462 ASUS41 KBOX 232010 RWRBOX REGIONAL WEATHER ROUNDUP NATIONAL WEATHER SERVICE BOSTON/NORTON MA 300 PM EST WED JAN 23 2019 NOTE: "FAIR" INDICATES FEW OR NO CLOUDS BELOW 12,000 FEET WITH NO SIGNIFICANT WEATHER AND/OR OBSTRUCTIONS TO VISIBILITY. MAZALL-232100- EASTERN MASSACHUSETTS CITY SKY/WX TMP DP RH WIND PRES REMARKS BOSTON CLOUDY 41 26 55 SW18G30 30.13F BEVERLY CLOUDY 41 25 53 SW20G29 30.11F WCI 32 LAWRENCE CLOUDY 39 26 59 SW15G31 30.12S WCI 31 BEDFORD CLOUDY 41 26 55 SW15G26 30.11F BLUE HILL N/A 37 26 64 S24G35 30.10F WCI 26 NORWOOD CLOUDY 42 27 55 S13G20 30.15F MARSHFIELD CLOUDY 45 30 57 SW15G24 30.16S PLYMOUTH CLOUDY 43 31 62 SW18G25 30.17F TAUNTON LGT RAIN 43 32 65 SW10G20 30.18F NEW BEDFORD CLOUDY 44 35 70 SW14 30.18F $$ MAZALL-232100- CAPE COD AND THE ISLANDS CITY SKY/WX TMP DP RH WIND PRES REMARKS FALMOUTH CLOUDY 43 37 81 SW18G25 30.19F HYANNIS CLOUDY 40 35 83 S10 30.19F CHATHAM CLOUDY 40 35 83 S10G21 30.22F PROVINCETOWN CLOUDY 42 35 76 SW20G26 30.17F NANTUCKET CLOUDY 40 37 89 S12 30.23F MARTHAS VNYRD CLOUDY 44 40 85 S14 30.21F $$ MAZALL-232100- CENTRAL AND WESTERN MASSACHUSETTS CITY SKY/WX TMP DP RH WIND PRES REMARKS WORCESTER CLOUDY 35 26 69 SW20G29 30.08F WCI 24 FITCHBURG CLOUDY 38 27 64 VRB7 30.10F ORANGE CLOUDY 36 25 64 S10 30.08F WCI 28 SPRINGFIELD CLOUDY 36 24 61 S14 30.11F WCI 27 WESTFIELD CLOUDY 36 24 62 S16 30.11F WCI 26 NORTH ADAMS CLOUDY 37 28 70 E3 30.01F PITTSFIELD CLOUDY 36 28 73 SW24G39 30.00F WCI 24 $$ RIZALL-232100- RHODE ISLAND CITY SKY/WX TMP DP RH WIND PRES REMARKS PROVIDENCE CLOUDY 41 28 60 SW13G21 30.18F NEWPORT CLOUDY 42 35 76 SW9G20 30.19F BLOCK ISLAND CLOUDY 44 36 73 SW14 30.20F SMITHFIELD CLOUDY 37 28 70 SW9 30.14F WCI 30 WESTERLY CLOUDY 42 33 70 SW8 30.20F $$ CTZALL-232100- CONNECTICUT CITY SKY/WX TMP DP RH WIND PRES REMARKS BRADLEY INTL CLOUDY 36 24 62 S15 30.14F WCI 27 HARTFORD CLOUDY 37 25 61 S8 30.16F WCI 31 BRIDGEPORT CLOUDY 38 27 64 SW3 30.17F DANBURY CLOUDY 35 25 66 S7 30.14F WCI 29 GROTON CLOUDY 42 33 70 SW14 30.18F NEW HAVEN CLOUDY 40 29 64 S10 30.18F CHESTER CLOUDY 39 25 56 SW8G15 30.16F MERIDEN CLOUDY 35 27 72 S5 30.17F WCI 31 WILLIMANTIC CLOUDY 38 26 62 SW7 30.16F OXFORD CLOUDY 32 26 78 VRB5 30.14F WCI 27 $$ MEZ002-015-021-024-NHZ003-005-008-011-012-014-VTZ005-008-232100- NORTHERN NEW ENGLAND CITY SKY/WX TMP DP RH WIND PRES REMARKS PORTLAND ME CLOUDY 36 19 50 S14G20 30.08F WCI 27 BANGOR ME CLOUDY 25 16 68 N9 30.09F WCI 15 CONCORD NH CLOUDY 35 19 52 SE5 30.06F WCI 31 MANCHESTER NH CLOUDY 41 26 55 SW14G21 30.06F NASHUA NH CLOUDY 41 28 60 VRB7 30.09F PORTSMOUTH NH CLOUDY 40 23 51 SW14G21 30.07F WCI 32 JAFFREY NH MIX PCPN 34 26 72 S12G18 30.03F WCI 25 KEENE NH CLOUDY 36 23 59 S8 30.05F WCI 30 BURLINGTON VT CLOUDY 30 15 53 S16G22 29.95F WCI 19 MT. WASHINGTON SNOW 25 25 100 SW61G69 N/A VSB 0 WCI 3 $$ NYZ052-076-232100- EASTERN NEW YORK CITY SKY/WX TMP DP RH WIND PRES REMARKS ALBANY CLOUDY 34 22 61 S15G22 30.03F WCI 24 NEW YORK CITY PTSUNNY 43 23 45 SW10 30.15F $$ ANZALL-232100- MARINE OBSERVATIONS STATION/POSITION TIME TEMP WIND PRES VSBY WAVE AIR SEA DIR/SP/G HT/PER (UTC) (F) (DEG/KT/KT) (MB) (MI) (FT/S) BOSTON BUOY 1950 42 41 200/ 21/ 27 1020.0R 4/ 4 BUZZARDS BAY 1900 43 210/ 21/ 23 1023.6F NANTUCKET SOUND 1950 38 33 180/ 14/ 16 1022.9F 1/ 3 MASS BAY-STELLWA 1904 41 40 230/ 23/ 27 1019.1F 1 7/8 6/ 4 ISLE OF SHOALS 2000 39 230/ 19/ 21 1018.7F S OF BLOCK IS 1930 44 N/A 6/ 7 $$ ......................KEY......................... SKY/WX - SKY CONDITION/PRESENT WEATHER TMP - TEMPERATURE IN FAHRENHEIT DWPT - DEWPOINT IN FAHRENHEIT RH - RELATIVE HUMIDITY IN PERCENT WIND - DIRECTION AND SPEED IN MPH PRES - MEAN SEA LEVEL PRESSURE IN INCHES OF HG WCI - WIND CHILL INDEX VSB - VISIBILITY IN MILES HX - HEAT INDEX TC - TEMPERATURE IN CELSIUS VRB - VARIABLE WIND DIRECTION N/A - NOT AVAILABLE

USA.gov is the U.S. government's official web portal to all federal, state and local government web resources and services.